Twentynine Palms, CA

3:50 AM PST on December 07, 2019 (GMT -0800)
Twentynine Palms Expeditionary Air Field

Weather History for KNXP - November, 2019

Change the Weather History Date:

Saturday, November 16, 2019

  Actual Average Record
Temperature  
Mean Temperature 64 °F -  
Max Temperature 79 °F 66 °F 84 °F (1999)
Min Temperature 50 °F 44 °F 34 °F (2000)
Growing Degree Days 14 (Base 50)    
Moisture  
Dew Point 22 °F    
Average Humidity 21    
Maximum Humidity 38    
Minimum Humidity 10    
Precipitation  
Precipitation 0.00 in - - ()
Sea Level Pressure  
Sea Level Pressure 30.00 in    
Wind  
Wind Speed 7 mph (NW)    
Max Wind Speed 12 mph    
Max Gust Speed -    
Visibility 9 miles    
Events      
Averages and records for this station are not official NWS values.
T = Trace of Precipitation, MM = Missing Value Source: NWS Daily Summary

Daily Weather History Graph

Daily Weather History Graph

Search for Another Location

Airport or City:

Astronomy

Nov. 16, 2019 Rise Set
Actual Time 6:18 AM PST 4:39 PM PST
Civil Twilight 5:51 AM PST 5:06 PM PST
Nautical Twilight 5:21 AM PST 5:37 PM PST
Astronomical Twilight 4:51 AM PST 6:06 PM PST
Moon 8:21 PM PST (11/16) 10:11 AM PST (11/16)
Length of Visible Light 11h 14m
Length of Day
10h 21m
Waning Gibbous, 81% of the Moon is Illuminated
Nov 16
Waning Gibbous
Nov 19
Last Quarter
Nov 26
New
Dec 3
First Quarter
Dec 11
Full

Hourly Weather History & Observations

Time (PST) Temp. Dew Point Humidity Pressure Visibility Wind Dir Wind Speed Gust Speed Precip Events Conditions
12:56 AM 54.0 °F 25.0 °F 33% 30.04 in 10.0 mi NW 5.8 mph - N/A   Clear
1:56 AM 54.0 °F 25.0 °F 33% 30.05 in 10.0 mi WNW 9.2 mph - N/A   Clear
2:56 AM 55.9 °F 25.0 °F 30% 30.04 in 10.0 mi NNW 3.5 mph - N/A   Clear
3:56 AM 54.0 °F 24.1 °F 31% 30.04 in 10.0 mi WNW 10.4 mph - N/A   Clear
4:56 AM 51.1 °F 24.1 °F 35% 30.06 in 10.0 mi NNW 5.8 mph - N/A   Clear
5:56 AM 50.0 °F 25.0 °F 38% 30.08 in 9.0 mi NNW 5.8 mph - N/A   Clear
6:56 AM 51.1 °F 25.0 °F 36% 30.09 in 8.0 mi WNW 4.6 mph - N/A   Clear
7:56 AM 57.0 °F 25.0 °F 29% 30.10 in 8.0 mi West 3.5 mph - N/A   Clear
8:56 AM 61.0 °F 24.1 °F 24% 30.11 in 8.0 mi NNW 4.6 mph - N/A   Clear
9:56 AM 71.1 °F 24.1 °F 17% 30.10 in 9.0 mi NNW 6.9 mph - N/A   Clear
10:56 AM 75.9 °F 21.9 °F 13% 30.08 in 9.0 mi North 9.2 mph - N/A   Clear
11:56 AM 77.0 °F 21.0 °F 12% 30.05 in 10.0 mi NNW 9.2 mph - N/A   Clear
12:56 PM 78.1 °F 19.9 °F 11% 30.02 in 10.0 mi North 9.2 mph - N/A   Clear
1:56 PM 78.1 °F 19.9 °F 11% 30.00 in 10.0 mi NNW 6.9 mph - N/A   Clear
2:56 PM 79.0 °F 18.0 °F 10% 29.99 in 10.0 mi North 9.2 mph - N/A   Clear
3:56 PM 77.0 °F 19.0 °F 11% 30.01 in 8.0 mi NNW 11.5 mph - N/A   Clear
4:56 PM 73.0 °F 21.0 °F 14% 29.37 in 9.0 mi WNW 6.9 mph - N/A   Clear
5:56 PM 71.1 °F 21.0 °F 15% 30.04 in 10.0 mi NNW 8.1 mph - N/A   Clear
6:56 PM 66.0 °F 21.0 °F 18% 30.06 in 10.0 mi West 10.4 mph - N/A   Clear
7:56 PM 66.0 °F 19.9 °F 17% 29.40 in 9.0 mi West 11.5 mph - N/A   Clear
8:56 PM 64.0 °F 19.9 °F 18% 30.07 in 8.0 mi West 6.9 mph - N/A   Clear
9:56 PM 63.0 °F 19.9 °F 19% 30.07 in 10.0 mi Variable 5.8 mph - N/A   Clear
10:56 PM 59.0 °F 19.9 °F 22% 30.07 in 8.0 mi Variable 4.6 mph - N/A   Clear
11:56 PM 64.0 °F 19.9 °F 18% 30.06 in 10.0 mi North 10.4 mph - N/A   Clear